Location: Newark
(36.1222°N, 100.9183°E)
Time: 00:47:32
(UTC+00:00)

OTV 5 (USA 277) - Visible Passes

Search period start: 17 October 2019 00:00
Search period end: 27 October 2019 00:00
Orbit: 310 x 324 km, 54.5° (Epoch: 08 October)

Date Brightness Start Highest point End Pass type
(mag) Time Alt. Az. Time Alt. Az. Time Alt. Az.
17 Oct ? 22:33:49 10° N 22:35:43 17° NE 22:37:38 10° E visible
18 Oct ? 22:47:46 10° NNW 22:50:25 45° NE 22:53:03 10° ESE visible
19 Oct ? 21:30:33 12° NE 21:30:33 12° NE 21:31:28 10° NE visible
20 Oct ? 21:45:16 26° NE 21:45:16 26° NE 21:47:34 10° E visible
21 Oct ? 22:00:07 67° SE 22:00:07 67° SE 22:02:32 10° SE visible
22 Oct ? 22:15:06 21° SSW 22:15:06 21° SSW 22:16:34 10° S visible
26 Oct ? 12:04:40 10° SSW 12:05:41 20° SSW 12:05:41 20° SSW visible
